This is the latest recevied weather packets stored in our database for station/object OE3CJB-13. If no packets are shown the sender has not sent any weather packets the latest 10 day(s).
| Time | Temp. | Humidity | Pressure | Rain* | Wind** | Luminosity | Snow |
|---|---|---|---|---|---|---|---|
| 1788690623 | 24.44° C | 30% | 1210 hPa | 0 mm | - | - | - |
| 1788689766 | 24.44° C | 30% | 1208.7 hPa | 0 mm | - | - | - |
| 1788688852 | 23.89° C | 34% | 1208.8 hPa | 0 mm | - | - | - |
| 1788687936 | 22.78° C | 38% | 1208.1 hPa | 0 mm | - | - | - |
| 1788687035 | 22.22° C | 39% | 1207.6 hPa | 0 mm | - | - | - |
| 1788686166 | 22.22° C | 39% | 1206.8 hPa | 0 mm | - | - | - |
| 1788685250 | 21.67° C | 43% | 1208.4 hPa | 0 mm | - | - | - |
| 1788684336 | 21.11° C | 44% | 1207.7 hPa | 0 mm | - | - | - |
| 1788683432 | 20.56° C | 46% | 1207.8 hPa | 0 mm | - | - | - |
| 1788682566 | 20.56° C | 47% | 1207 hPa | 0 mm | - | - | - |
| 1788681650 | 19.44° C | 51% | 1206.2 hPa | 0 mm | - | - | - |
| 1788680736 | 18.89° C | 57% | 1204.6 hPa | 0 mm | - | - | - |
| 1788679823 | 18.33° C | 61% | 1204.6 hPa | 0 mm | - | - | - |
| 1788678966 | 17.78° C | 67% | 1203.8 hPa | 0 mm | - | - | - |
| 1788678067 | 17.22° C | 70% | 1202.9 hPa | 0 mm | - | - | - |
| 1788677136 | 16.67° C | 74% | 1201.3 hPa | 0 mm | - | - | - |
| 1788676272 | 16.11° C | 75% | 1200.3 hPa | 0 mm | - | - | - |
| 1788675366 | 15.56° C | 76% | 1202 hPa | 0 mm | - | - | - |
| 1788674455 | 15° C | 76% | 1201.2 hPa | 0 mm | - | - | - |
| 1788673536 | 14.44° C | 77% | 1200.3 hPa | 0 mm | - | - | - |
| 1788672671 | 14.44° C | 78% | 1200.2 hPa | 0 mm | - | - | - |
| 1788671766 | 13.89° C | 79% | 1200 hPa | 0 mm | - | - | - |
| 1788670850 | 13.33° C | 78% | 1199.9 hPa | 0 mm | - | - | - |
| 1788669936 | 13.33° C | 78% | 1200.7 hPa | 0 mm | - | - | - |
| 1788669023 | 13.33° C | 77% | 1200.6 hPa | 0 mm | - | - | - |
* Rain latest hour (hover to see other rain measurements)
** Current wind speed in m/s (hover to see current wind gust speed)